Regional Weather Roundup
Issued by NWS

Home | Current Version | Previous Version | Graphics & Text | Print | Product List | Glossary On
Versions: 1 2 3 4 5 6 7 8 9 10 11 12 13 14 15 16 17 18 19 20 21 22 23 24 25 26 27 28 29 30 31 32 33 34 35 36 37 38 39 40 41 42 43 44 45 46 47 48 49 50
000
ASUS45 KBOI 051910
RWRID
WEATHER ROUNDUP FOR IDAHO
NATIONAL WEATHER SERVICE BOISE ID
100 PM MDT TUE MAY 05 2015

NOTE: "FAIR" INDICATES FEW OR NO CLOUDS BELOW 12000 FEET
WITH NO SIGNIFICANT WEATHER AND/OR OBSTRUCTIONS TO VISIBILITY

IDZ012-014-052000-
SOUTHWEST IDAHO


CITY           SKY/WX    TMP DP  RH WIND       PRES   REMARKS
BOISE          SUNNY     66  30  26 NW20G29   29.89S
CALDWELL       MOSUNNY   64  36  34 NW16      29.90F
MOUNTAIN HOME  MOSUNNY   69  24  18 NW24G30   29.84F
$$

IDZ016-017-052000-
SOUTHCENTRAL IDAHO


CITY           SKY/WX    TMP DP  RH WIND       PRES   REMARKS
BURLEY         SUNNY     69  42  37 W15G23    29.81F
JEROME         MOSUNNY   68  33  27 SW20G28   29.84F
TWIN FALLS     MOSUNNY   70  32  24 W18G26    29.85F
$$

IDZ019>023-052000-
SOUTHEAST IDAHO


CITY           SKY/WX    TMP DP  RH WIND       PRES   REMARKS
IDAHO FALLS    MOSUNNY   70  39  32 SW8       29.81F
POCATELLO      MOSUNNY   68  36  30 W12       29.82F
REXBURG        MOSUNNY   68  40  35 CALM      29.81F
$$

IDZ006-010-011-018-031-032-052000-
CENTRAL IDAHO MOUNTAINS


CITY           SKY/WX    TMP DP  RH WIND       PRES   REMARKS
MCCALL         PTSUNNY   56  36  47 W10       29.89R
HAILEY         MOSUNNY   66  45  45 SE14      29.84F
STANLEY        NOT AVBL
SALMON           N/A     66  37  34 CALM      29.73F
CHALLIS        PTSUNNY   66  35  31 CALM      29.77F
$$

IDZ002-004-006-007-026-052000-
NORTHERN IDAHO


CITY           SKY/WX    TMP DP  RH WIND       PRES   REMARKS
LEWISTON       PTSUNNY   62  28  27 NW9       29.97S
LOWELL           N/A     59  37  44 CALM      29.98S
COEUR D`ALENE  PTSUNNY   55  32  41 S9G20     29.97S
MULLAN PASS    CLOUDY    40  25  55 W6        29.94R
$$


USA.gov is the U.S. government's official web portal to all federal, state and local government web resources and services.